Terug naar catalogus

THOR ABLESTAR R/B

ActiefPO
NORAD 953·ROCKET BODY·🇺🇸 United States

Gelanceerd Dec 13, 1964 vanaf Vandenberg Space Force Base

Loading…

Volgende Passages (komende 24 uur)

TLE

VersSource: Space-Track

Epoch: Sep 14, 2026, 06:07 UTC

1 00953U 64083A   26257.25546992  .00000048  00000-0  52921-4 0  9997
2 00953  90.0426 193.4785 0031731 170.1887 347.1792 13.58843315 60677

Volg THOR ABLESTAR R/B in realtime met AllMySat

Download on the App Store